sat.trackr.live / text

‹ back to catalog

YAOGAN-30 03B

NORAD 43029 · 2017-075B

PAYLOAD ACTIVE UNKNOWN

§ Identity

Operator
Country
PRC
Launch date
2017-11-24
Launch site
XICLF
Launch vehicle
Mass (kg)
RCS (m²)

External: N2YO · Heavens-Above · Gunter

§ Orbital elements

Epoch: 2026-09-13T00:40:04.418688Z

Period
95.81 min
Inclination
34.9935°
Eccentricity
0.0004425
Mean motion
15.03000669 rev/d
Perigee alt
554.6 km
Apogee alt
560.7 km
Semi-major
6,935.8 km
B*
1.3705e-4
RAAN
94.6899°
Arg perigee
289.7925°
Mean anomaly
70.2306°
Rev number
48,058

§ Raw data

YAOGAN-30 03B1 43029U 17075B   26256.02782892  .00001853  00000+0  13705-3 0  99922 43029  34.9935  94.6899 0004425 289.7925  70.2306 15.03000669480588

JSON: /api/v1/satellites/43029 · /tle

For live sub-satellite position, see the globe view (requires WebGL).

§ Visibility from observer

Set your observer location to see the next 7 days of passes ≥ 10°. The values pass through the URL so the page stays shareable.

No JS? Fill the form by hand. The geolocation button needs JavaScript.